When you browse on this site, cookies collect data to enhance your experience and personalize the content and advertising you see.
Visit our Privacy Policy to learn more. By continuing to use the site, you agree to this use of cookies and data.
  • In Sweden
  • List of Countries
  • For 7 days
  • Water Temperature
  • Satellite Maps
  • Weather Map
  • Weather Widgets
  • user-avatar
    Login

    Hourly Weather Carmarthen

    Today, 17 June, Monday

    Time Temperature Precipitation Wind Pressure Humidity
    00:00 +8°C° 0 mm 6 mps 752 mmHg 95%
    01:00 +8°C° 0 mm 6 mps 753 mmHg 96%
    02:00 +8°C° 0 mm 5 mps 753 mmHg 96%
    03:00 +7°C° 0 mm 5 mps 753 mmHg 96%
    04:00 +8°C° 0 mm 5 mps 753 mmHg 95%
    05:00 +8°C° 0 mm 5 mps 753 mmHg 95%
    06:00 +9°C° 0 mm 5 mps 753 mmHg 94%
    07:00 +10°C° 0 mm 5 mps 753 mmHg 90%
    08:00 +11°C° 0 mm 6 mps 753 mmHg 85%
    09:00 +13°C° 0 mm 6 mps 753 mmHg 80%
    10:00 +14°C° 0.2 mm 7 mps 753 mmHg 80%
    11:00 +15°C° 0.2 mm 7 mps 753 mmHg 79%
    12:00 +15°C° 0.2 mm 8 mps 754 mmHg 78%
    13:00 +15°C° 0.5 mm 8 mps 754 mmHg 80%
    14:00 +15°C° 0.5 mm 7 mps 754 mmHg 82%
    15:00 +16°C° 0.5 mm 7 mps 754 mmHg 84%
    16:00 +15°C° 0.5 mm 6 mps 754 mmHg 86%
    17:00 +15°C° 0.5 mm 5 mps 754 mmHg 88%
    18:00 +15°C° 0.5 mm 4 mps 755 mmHg 89%
    19:00 +13°C° 0.3 mm 4 mps 755 mmHg 91%
    20:00 +12°C° 0.3 mm 4 mps 755 mmHg 93%
    21:00 +11°C° 0.3 mm 4 mps 756 mmHg 95%
    22:00 +10°C° 0 mm 4 mps 756 mmHg 95%
    23:00 +8°C° 0 mm 4 mps 756 mmHg 96%

    Tomorrow, 18 June, Tuesday

    Time Temperature Precipitation Wind Pressure Humidity
    00:00 +8°C° 0 mm 4 mps 756 mmHg 97%
    01:00 +7°C° 0 mm 4 mps 755 mmHg 97%
    02:00 +7°C° 0 mm 4 mps 755 mmHg 97%
    03:00 +7°C° 0 mm 4 mps 755 mmHg 98%
    04:00 +7°C° 0 mm 5 mps 755 mmHg 97%
    05:00 +8°C° 0 mm 5 mps 755 mmHg 97%
    06:00 +8°C° 0 mm 5 mps 755 mmHg 97%
    07:00 +9°C° 0 mm 5 mps 755 mmHg 94%
    08:00 +10°C° 0 mm 5 mps 755 mmHg 91%
    09:00 +10°C° 0 mm 5 mps 755 mmHg 87%
    10:00 +13°C° 0 mm 5 mps 755 mmHg 81%
    11:00 +14°C° 0 mm 5 mps 755 mmHg 75%
    12:00 +16°C° 0 mm 5 mps 755 mmHg 69%
    13:00 +15°C° 0.2 mm 5 mps 755 mmHg 75%
    14:00 +15°C° 0.2 mm 5 mps 755 mmHg 80%
    15:00 +15°C° 0.2 mm 5 mps 755 mmHg 86%
    16:00 +15°C° 0.3 mm 4 mps 755 mmHg 86%
    17:00 +16°C° 0.3 mm 3 mps 755 mmHg 86%
    18:00 +16°C° 0.3 mm 3 mps 755 mmHg 86%
    19:00 +14°C° 0.1 mm 2 mps 755 mmHg 88%
    20:00 +13°C° 0.1 mm 2 mps 755 mmHg 90%
    21:00 +11°C° 0.1 mm 1 mps 755 mmHg 93%
    22:00 +11°C° 0 mm 1 mps 755 mmHg 93%
    23:00 +9°C° 0 mm 2 mps 755 mmHg 93%

    Day after tomorrow, 19 June, Wednesday

    Time Temperature Precipitation Wind Pressure Humidity
    00:00 +8°C° 0 mm 2 mps 754 mmHg 94%
    01:00 +8°C° 0 mm 2 mps 754 mmHg 94%
    02:00 +8°C° 0 mm 2 mps 754 mmHg 95%
    03:00 +7°C° 0 mm 2 mps 754 mmHg 95%
    04:00 +8°C° 0 mm 2 mps 753 mmHg 95%
    05:00 +9°C° 0 mm 2 mps 753 mmHg 95%
    06:00 +10°C° 0 mm 2 mps 753 mmHg 95%
    07:00 +12°C° 0 mm 2 mps 753 mmHg 90%
    08:00 +13°C° 0 mm 2 mps 753 mmHg 85%
    09:00 +14°C° 0 mm 3 mps 753 mmHg 80%
    10:00 +14°C° 0.1 mm 3 mps 753 mmHg 80%
    11:00 +14°C° 0.1 mm 4 mps 753 mmHg 80%
    12:00 +14°C° 0.1 mm 4 mps 753 mmHg 80%
    13:00 +14°C° 0.3 mm 4 mps 753 mmHg 79%
    14:00 +15°C° 0.3 mm 4 mps 753 mmHg 77%
    15:00 +15°C° 0.3 mm 4 mps 753 mmHg 76%
    16:00 +14°C° 0.6 mm 4 mps 753 mmHg 81%
    17:00 +14°C° 0.6 mm 4 mps 753 mmHg 85%
    18:00 +13°C° 0.6 mm 4 mps 753 mmHg 89%
    19:00 +12°C° 0.2 mm 4 mps 753 mmHg 90%
    20:00 +11°C° 0.2 mm 3 mps 753 mmHg 91%
    21:00 +10°C° 0.2 mm 3 mps 753 mmHg 92%
    22:00 +10°C° 0 mm 3 mps 753 mmHg 93%
    23:00 +9°C° 0 mm 3 mps 753 mmHg 95%

    20 June, Thursday

    Time Temperature Precipitation Wind Pressure Humidity
    00:00 +8°C° 0 mm 4 mps 753 mmHg 96%
    01:00 +7°C° 0 mm 4 mps 753 mmHg 96%
    02:00 +6°C° 0 mm 4 mps 753 mmHg 97%
    03:00 +5°C° 0 mm 5 mps 753 mmHg 97%
    04:00 +6°C° 0 mm 5 mps 753 mmHg 96%
    05:00 +5°C° 0 mm 6 mps 753 mmHg 96%
    06:00 +7°C° 0 mm 6 mps 753 mmHg 95%
    07:00 +8°C° 0 mm 6 mps 753 mmHg 91%
    08:00 +9°C° 0 mm 5 mps 754 mmHg 88%
    09:00 +12°C° 0 mm 4 mps 754 mmHg 84%
    10:00 +12°C° 0.5 mm 4 mps 754 mmHg 84%
    11:00 +13°C° 0.5 mm 3 mps 754 mmHg 84%
    12:00 +13°C° 0.5 mm 3 mps 755 mmHg 84%
    13:00 +13°C° 0.6 mm 3 mps 755 mmHg 83%
    14:00 +14°C° 0.6 mm 2 mps 755 mmHg 83%
    15:00 +14°C° 0.6 mm 2 mps 755 mmHg 83%
    16:00 +13°C° 0.5 mm 3 mps 755 mmHg 84%
    17:00 +12°C° 0.5 mm 3 mps 755 mmHg 85%
    18:00 +12°C° 0.5 mm 3 mps 755 mmHg 87%
    19:00 +12°C° 0.2 mm 2 mps 756 mmHg 88%
    20:00 +10°C° 0.2 mm 2 mps 756 mmHg 89%
    21:00 +10°C° 0.2 mm 1 mps 756 mmHg 91%
    22:00 +8°C° 0 mm 2 mps 756 mmHg 92%
    23:00 +7°C° 0 mm 2 mps 757 mmHg 92%

    21 June, Friday

    Time Temperature Precipitation Wind Pressure Humidity
    00:00 +5°C° 0 mm 3 mps 757 mmHg 93%
    01:00 +5°C° 0 mm 3 mps 757 mmHg 94%
    02:00 +4°C° 0 mm 4 mps 757 mmHg 95%
    03:00 +4°C° 0 mm 4 mps 758 mmHg 96%
    04:00 +5°C° 0 mm 4 mps 758 mmHg 96%
    05:00 +5°C° 0 mm 4 mps 758 mmHg 96%
    06:00 +6°C° 0 mm 4 mps 758 mmHg 96%
    07:00 +8°C° 0 mm 4 mps 759 mmHg 90%
    08:00 +10°C° 0 mm 4 mps 759 mmHg 85%
    09:00 +12°C° 0 mm 3 mps 760 mmHg 79%
    10:00 +12°C° 0.2 mm 3 mps 760 mmHg 79%
    11:00 +13°C° 0.2 mm 3 mps 760 mmHg 79%
    12:00 +14°C° 0.2 mm 2 mps 760 mmHg 79%
    13:00 +13°C° 0.2 mm 3 mps 761 mmHg 78%
    14:00 +14°C° 0.2 mm 3 mps 761 mmHg 77%
    15:00 +14°C° 0.2 mm 3 mps 761 mmHg 77%
    16:00 +13°C° 0.1 mm 3 mps 761 mmHg 78%
    17:00 +13°C° 0.1 mm 4 mps 762 mmHg 79%
    18:00 +12°C° 0.1 mm 4 mps 762 mmHg 80%
    19:00 +11°C° 0 mm 4 mps 762 mmHg 84%
    20:00 +9°C° 0 mm 3 mps 763 mmHg 87%
    21:00 +8°C° 0 mm 3 mps 763 mmHg 91%
    22:00 +7°C° 0 mm 2 mps 763 mmHg 92%
    23:00 +6°C° 0 mm 2 mps 763 mmHg 92%

    22 June, Saturday

    Time Temperature Precipitation Wind Pressure Humidity
    00:00 +7°C° 0 mm 1 mps 763 mmHg 92%
    01:00 +6°C° 0 mm 1 mps 763 mmHg 92%
    02:00 +6°C° 0 mm 1 mps 763 mmHg 92%
    03:00 +6°C° 0 mm 1 mps 763 mmHg 92%
    04:00 +7°C° 0 mm 1 mps 764 mmHg 90%
    05:00 +8°C° 0 mm 1 mps 764 mmHg 89%
    06:00 +10°C° 0 mm 1 mps 764 mmHg 87%
    07:00 +11°C° 0 mm 1 mps 764 mmHg 82%
    08:00 +13°C° 0 mm 1 mps 764 mmHg 77%
    09:00 +14°C° 0 mm 1 mps 764 mmHg 72%
    10:00 +15°C° 0 mm 1 mps 764 mmHg 72%
    11:00 +15°C° 0 mm 2 mps 764 mmHg 72%
    12:00 +16°C° 0 mm 2 mps 764 mmHg 72%
    13:00 +16°C° 0 mm 2 mps 764 mmHg 72%
    14:00 +16°C° 0 mm 2 mps 764 mmHg 72%
    15:00 +16°C° 0 mm 2 mps 764 mmHg 71%
    16:00 +16°C° 0 mm 2 mps 764 mmHg 72%
    17:00 +15°C° 0 mm 2 mps 764 mmHg 74%
    18:00 +15°C° 0 mm 1 mps 764 mmHg 75%
    19:00 +13°C° 0 mm 1 mps 764 mmHg 79%
    20:00 +11°C° 0 mm 1 mps 765 mmHg 83%
    21:00 +9°C° 0 mm 0 mps 765 mmHg 87%
    22:00 +9°C° 0 mm 1 mps 765 mmHg 85%
    23:00 +9°C° 0 mm 1 mps 765 mmHg 83%
    Show more